RH
18 17 9 6 9 11 20 41 61 50 74 76 61 88 93 66 79 63 58 60 94 96 96 96 86 81 59 52 52 47 50 49 51 58 62 66 57 44 42 39 41 47 56 57 52 33 22 17 13
20 15 6 7 10 15 48 77 66 72 79 87 61 63 83 74 37 41 96 97 89 90 93 90 76 75 64 60 55 53 57 60 62 63 66 72 55 41 42 44 61 69 64 64 59 32 18 19 16
20 10 6 8 11 32 52 82 87 81 76 68 58 64 57 45 88 43 54 50 60 88 84 82 77 70 73 64 70 74 72 71 73 72 71 73 57 42 43 45 46 66 69 78 73 53 32 22 15
17 6 9 11 26 60 85 82 62 75 70 73 33 57 40 64 98 52 32 20 63 82 66 82 89 97 100 96 97 86 86 82 78 75 76 73 64 59 55 52 49 62 73 85 83 75 66 41 16
10 6 13 55 78 84 76 67 76 54 43 31 55 18 30 79 92 45 28 36 63 88 70 90 90 87 85 91 95 92 85 86 87 84 79 74 67 74 74 72 57 56 80 91 89 83 70 58 16
5 6 67 79 88 72 68 57 35 34 24 13 41 94 61 49 67 40 25 25 45 70 94 90 94 85 90 96 89 92 98 82 79 78 73 70 71 81 80 83 83 82 79 92 96 89 78 29 14
4 10 75 77 76 88 78 31 50 56 23 79 80 96 94 99 83 62 49 56 47 75 83 97 96 87 81 96 96 91 82 80 82 78 70 85 81 90 96 84 92 90 93 96 96 86 84 39 22
4 9 52 94 80 59 48 80 35 19 30 96 53 71 89 80 73 56 44 55 46 65 87 90 93 96 95 96 96 95 94 93 96 92 92 84 92 96 90 96 95 95 84 92 90 96 84 51 25
6 32 96 94 88 86 35 35 19 68 66 41 50 90 75 46 59 55 50 68 60 56 58 80 82 86 95 96 97 96 97 97 96 94 93 86 86 88 90 96 96 96 96 95 98 96 82 61 55
9 35 96 100 72 88 51 28 65 39 83 87 100 50 80 78 67 56 67 76 70 64 60 60 69 76 87 88 94 93 93 91 87 96 94 93 84 94 96 90 96 95 97 96 82 36 62 35 50
14 43 85 89 93 57 20 36 62 74 27 36 92 80 64 60 48 53 55 59 61 64 66 50 61 83 82 63 72 65 58 83 80 98 96 98 97 98 97 96 97 96 89 96 66 55 59 62 52
59 21 66 86 80 30 39 46 78 81 67 71 80 54 58 55 53 54 55 56 59 50 44 37 82 78 63 50 51 67 56 96 77 90 97 97 96 70 100 96 96 96 96 90 77 82 68 59 68
61 59 40 82 87 58 50 45 39 96 80 32 31 37 47 42 46 43 54 50 45 36 30 29 73 58 53 47 56 52 60 88 97 96 94 89 78 99 98 96 96 97 92 97 86 70 68 35 23
27 22 33 87 66 39 55 55 78 54 76 43 54 43 27 26 44 39 36 33 49 47 37 41 39 51 42 42 68 92 96 97 96 96 92 79 95 99 98 96 96 88 94 90 83 75 27 14 12
13 22 64 85 86 40 78 81 58 96 96 45 70 45 28 29 29 31 59 72 70 49 40 41 41 41 44 86 71 97 94 99 93 88 95 91 95 97 98 96 82 95 99 98 79 34 15 13 11
30 51 89 87 80 64 70 97 98 82 74 76 46 49 43 35 39 90 86 84 75 72 57 49 46 62 99 99 97 97 93 70 83 97 92 98 100 97 96 87 97 93 73 48 24 15 13 13 12
81 74 100 81 78 90 64 50 76 95 56 50 55 45 61 58 70 98 88 78 65 66 75 78 86 94 96 95 99 97 93 84 96 97 95 96 95 94 96 93 66 54 52 28 16 15 14 12 13
99 100 93 98 86 65 68 67 56 67 95 64 56 62 77 86 95 93 84 70 52 45 40 54 56 80 100 100 97 96 92 95 94 93 92 94 96 93 96 79 75 62 37 16 16 16 16 32 30
60 30 84 72 96 78 49 62 56 84 97 65 52 56 77 94 89 86 79 66 58 59 51 31 20 35 47 48 42 46 60 41 42 41 48 70 88 98 96 95 72 32 19 17 19 21 26 44 42
34 20 40 98 76 54 46 60 88 64 94 61 50 22 44 65 63 52 56 70 60 41 36 36 33 24 21 18 20 24 26 22 23 43 56 65 90 98 98 94 79 50 41 25 20 36 66 68 66
32 33 62 99 95 92 54 52 75 66 76 66 55 31 32 28 38 46 38 31 26 29 38 35 31 22 19 18 16 18 37 51 48 51 62 60 60 97 97 96 84 80 82 92 94 84 77 83 72
52 95 57 85 97 90 88 88 71 77 82 63 59 40 24 28 25 19 17 18 17 21 22 20 19 20 19 15 14 15 24 48 60 63 75 42 44 52 64 94 98 97 98 96 98 93 90 90 88
27 65 57 76 46 68 90 77 95 80 93 97 70 81 36 21 25 34 30 26 26 20 19 19 19 20 21 21 24 25 30 41 42 49 58 57 35 34 45 69 67 90 84 86 89 100 98 83 65
19 52 38 22 28 49 63 93 78 97 89 98 81 78 49 24 22 22 38 56 67 64 34 35 36 37 29 29 45 59 44 29 50 67 75 76 80 65 55 82 71 60 72 85 93 97 89 80 99
20 38 42 56 80 49 86 100 97 98 86 92 97 70 70 59 21 28 42 46 82 93 92 75 57 50 46 44 64 63 59 63 71 87 91 98 93 69 57 81 78 80 98 100 100 99 97 94 100
23 34 44 68 95 96 67 87 77 69 73 75 56 46 62 41 29 20 41 67 64 66 80 77 71 55 50 54 58 62 66 96 92 96 61 43 74 89 66 91 94 92 96 97 96 96 72 98 99
48 58 53 90 84 95 94 84 61 79 71 64 41 34 45 72 51 28 43 47 61 49 40 35 47 41 51 51 39 60 94 35 46 29 56 53 44 47 63 60 62 65 82 77 72 57 72 96 90
20 71 100 69 77 91 73 64 96 96 82 53 40 38 39 41 64 54 55 57 60 46 32 19 22 33 53 44 29 24 74 63 25 48 97 90 54 62 53 52 41 34 32 27 33 24 42 51 29
22 20 44 85 84 76 70 94 82 97 89 62 53 44 42 39 43 57 73 81 72 68 62 26 19 18 17 22 23 32 28 32 91 71 47 66 64 47 43 43 39 20 11 9 67 93 39 12 15
32 43 30 40 66 76 61 96 93 96 93 67 59 51 47 48 51 48 57 84 81 67 59 33 19 18 17 25 39 89 83 64 97 75 67 65 53 37 38 44 26 10 9 10 12 18 14 18 20
Wind_Speed
44 47 50 43 31 25 12 11 11 13 35 37 44 42 30 40 43 35 48 47 23 4 32 26 35 33 27 28 29 30 30 31 32 29 27 23 21 16 17 17 17 16 16 16 19 19 17 14 11
44 48 44 31 23 16 8 16 16 26 39 36 34 44 28 46 57 46 43 49 57 38 24 24 27 31 34 35 35 36 35 34 32 30 27 23 20 17 16 17 17 16 17 17 19 18 18 16 15
45 49 39 26 16 11 5 22 23 31 29 28 27 35 44 48 33 57 46 40 50 36 20 26 32 36 39 38 37 37 37 36 33 30 27 23 22 22 23 21 20 21 18 18 17 18 18 19 17
46 44 26 14 11 9 18 22 28 29 29 23 27 40 41 45 38 40 36 29 28 41 36 28 42 38 31 36 35 36 34 34 35 31 26 24 23 25 29 26 24 22 20 19 18 17 19 21 19
46 36 19 12 12 14 17 25 27 33 31 29 26 40 34 40 23 27 21 21 26 33 32 36 34 31 41 40 37 39 36 31 29 28 26 24 27 26 28 26 24 23 21 18 19 21 22 22 20
43 27 8 9 16 21 17 30 34 34 41 30 33 25 24 30 19 15 16 20 30 37 28 38 32 30 37 43 48 38 33 32 32 32 30 28 28 25 26 21 21 19 23 27 22 23 23 19 17
31 11 8 7 13 16 18 31 25 29 27 25 31 7 12 17 25 15 17 24 34 34 32 19 33 33 34 39 35 36 33 32 33 33 31 30 28 27 26 20 23 21 23 28 26 26 22 17 14
21 8 12 7 10 22 24 22 23 21 26 10 17 16 24 18 16 12 19 26 32 30 33 31 29 19 36 46 37 37 31 31 35 35 31 31 22 30 34 30 26 26 27 30 32 28 15 13 13
12 6 8 16 13 18 26 25 10 16 23 22 15 18 18 17 11 14 19 24 29 27 28 33 34 32 24 15 32 40 38 34 33 34 34 24 23 29 36 36 34 31 30 27 28 15 8 12 11
10 4 5 12 23 18 24 15 17 18 17 28 14 21 22 12 9 11 15 16 20 23 28 31 27 29 24 16 13 8 8 21 28 32 34 31 30 32 31 38 39 38 23 18 13 10 12 12 13
11 6 14 12 18 23 19 14 18 21 26 26 13 19 13 12 14 14 16 15 14 20 20 26 30 29 14 15 19 17 18 19 20 37 37 45 45 44 56 47 44 30 18 10 11 11 10 13 15
16 13 9 16 18 12 14 19 19 23 26 13 15 19 8 14 12 17 18 21 17 20 20 26 19 17 19 25 22 21 21 31 23 26 37 27 35 32 43 32 29 29 14 12 10 10 11 14 16
13 15 11 11 22 12 10 14 12 23 17 14 14 19 22 20 17 21 21 22 22 25 21 21 20 22 27 25 25 24 24 23 24 19 23 20 23 28 33 35 25 16 12 11 12 12 11 13 12
8 9 9 11 17 13 13 19 22 17 11 16 16 20 23 21 17 19 20 20 16 16 19 20 20 26 26 24 29 25 22 25 31 31 31 22 25 28 32 22 20 17 12 13 13 11 11 10 10
9 9 11 8 15 11 13 22 26 19 9 12 19 20 19 18 17 17 16 16 15 11 16 16 19 20 21 17 17 21 24 28 31 28 28 20 17 23 18 21 17 14 13 13 12 11 10 11 13
8 5 13 19 19 8 6 15 27 20 15 10 20 22 19 18 16 15 12 10 7 7 5 10 15 17 18 17 17 21 24 27 27 23 15 14 17 19 18 14 13 10 10 13 11 11 13 15 16
15 14 15 24 12 12 11 16 14 17 10 21 27 25 13 15 16 17 11 4 6 9 11 3 12 20 22 19 24 29 26 16 12 14 16 17 12 11 9 11 9 10 13 13 13 14 15 18 20
2 13 18 23 17 23 14 9 20 20 11 24 24 20 13 9 12 11 9 8 6 10 14 17 20 17 10 12 13 15 19 19 17 15 11 5 2 8 12 12 12 13 15 14 16 17 19 20 24
14 17 10 20 16 18 16 1 17 21 12 18 20 9 8 9 8 9 8 9 8 10 11 12 11 12 11 11 12 14 14 9 7 4 3 2 6 10 16 16 14 14 15 17 20 20 24 26 28
12 10 13 14 21 12 10 7 14 19 13 17 12 7 6 8 7 7 7 7 8 7 8 9 10 9 10 10 9 8 5 3 3 4 4 6 11 11 11 14 14 16 19 20 23 24 28 33 36
12 11 11 15 20 7 14 8 11 16 17 15 12 4 4 1 3 5 4 4 4 6 6 7 9 11 11 10 10 10 8 6 4 5 7 8 12 13 12 14 18 21 24 27 30 30 32 36 39
11 7 11 21 23 11 17 15 18 15 15 13 7 13 3 3 3 4 4 4 4 5 5 6 8 7 8 10 11 10 8 6 7 8 10 11 11 13 15 18 18 21 26 29 28 33 37 39 38
10 12 13 20 25 19 11 21 13 13 8 11 17 8 12 5 5 5 5 4 6 5 6 6 7 9 10 12 12 13 13 13 12 11 12 13 15 16 17 19 22 23 27 31 32 31 41 36 43
16 11 10 13 18 15 11 18 13 20 10 13 17 14 18 8 6 6 6 6 10 8 9 9 10 11 11 10 12 15 16 16 15 14 15 19 19 20 21 24 26 29 31 30 36 35 30 33 43
16 14 10 12 14 6 5 16 20 24 12 12 5 22 19 14 8 10 10 9 8 6 10 12 12 12 12 11 13 16 16 16 16 13 11 17 10 13 21 27 30 33 35 35 37 42 39 33 46
18 16 16 14 12 14 17 18 13 20 13 11 15 17 22 17 12 9 9 7 10 10 10 12 13 12 12 13 15 14 19 17 16 11 16 19 19 19 25 27 32 34 32 36 32 30 36 35 41
20 20 12 15 20 17 9 7 11 20 22 15 17 16 15 17 18 15 14 14 15 17 15 14 15 14 13 15 17 17 17 16 18 19 19 22 25 25 26 30 31 33 32 32 35 36 36 39 45
27 16 21 24 24 18 17 9 25 18 21 16 19 19 18 17 16 18 19 22 21 19 17 15 14 14 15 18 19 20 32 19 24 25 22 27 30 30 32 34 36 35 34 37 40 41 43 48 53
21 27 26 24 27 23 15 20 23 12 19 22 18 22 19 19 17 19 23 26 25 25 23 18 18 19 17 19 23 23 25 27 26 27 31 33 34 35 35 37 39 39 41 42 42 42 52 54 55
25 19 26 28 26 23 23 23 19 17 19 23 19 23 22 18 21 23 25 26 29 26 25 21 20 23 24 26 26 28 26 30 29 32 34 38 39 39 41 42 42 42 43 43 43 48 51 54 57
Wind_Direction
324 329 334 326 313 307 330 13 294 260 264 253 238 237 209 219 212 219 226 233 210 42 188 214 227 231 235 246 250 247 250 255 260 263 265 268 272 270 268 267 265 271 269 269 266 257 256 260 263
329 335 331 320 303 293 318 273 233 242 248 252 256 239 252 238 235 231 236 248 247 260 189 209 227 233 238 237 244 249 252 253 253 254 258 263 266 271 278 276 267 267 268 267 262 255 254 258 260
333 338 328 318 288 303 204 271 263 246 246 257 257 274 266 263 230 228 250 260 285 242 243 219 231 228 234 237 242 249 252 252 254 256 255 259 263 267 276 278 270 264 267 265 267 262 260 260 260
339 337 321 311 315 245 261 282 283 265 262 271 239 248 255 257 239 221 246 266 265 248 241 237 229 229 236 236 235 241 249 251 256 255 255 255 265 268 270 268 263 258 262 262 264 271 266 265 258
344 333 330 10 334 294 281 260 242 263 263 256 259 253 263 252 258 246 269 259 247 246 232 241 233 236 239 240 242 240 242 246 249 253 254 258 263 268 271 262 258 257 254 257 258 264 262 264 255
341 332 26 329 296 290 258 257 276 261 254 245 227 263 260 256 266 246 257 236 238 249 246 228 221 232 235 236 241 234 238 243 247 253 257 259 264 265 271 261 262 257 255 260 258 260 259 254 254
342 335 283 255 282 290 259 286 280 273 270 248 242 336 262 230 233 233 248 241 235 247 254 212 204 227 229 245 210 226 234 241 246 249 251 251 259 259 266 260 251 259 263 260 256 252 253 248 255
350 7 69 334 271 269 260 271 291 284 250 293 329 281 272 314 254 252 243 241 251 251 255 270 253 232 230 230 203 222 226 235 243 247 244 246 269 264 261 260 254 263 264 266 271 267 239 243 249
2 85 35 295 264 267 283 263 283 292 282 291 291 281 275 285 248 248 243 250 261 263 264 275 281 263 268 278 225 222 223 232 240 236 245 244 281 281 264 263 258 257 264 274 268 246 218 235 251
13 96 356 279 261 256 269 254 282 271 275 267 269 269 259 258 260 247 252 272 278 276 272 271 275 280 293 303 238 270 244 239 260 242 230 254 280 286 266 265 261 259 250 240 225 216 214 245 252
352 296 215 246 279 274 259 261 271 277 267 276 326 293 257 263 272 266 268 279 289 293 279 291 272 258 268 274 284 278 255 255 259 265 242 258 269 289 276 255 257 256 229 219 221 205 233 239 260
317 318 294 284 261 279 251 261 262 267 261 278 276 295 305 259 265 274 279 279 276 285 279 273 272 234 256 263 272 264 248 266 255 271 267 267 267 299 274 242 251 247 194 170 210 224 240 251 260
301 325 307 311 308 274 259 266 272 293 337 291 294 294 285 284 278 280 272 272 275 277 271 273 231 225 246 261 263 261 250 284 254 269 272 276 285 267 252 260 249 178 158 203 228 238 256 261 257
299 302 280 245 271 262 280 277 281 248 265 277 301 299 279 277 271 275 275 278 274 267 266 263 240 241 254 255 254 268 271 263 251 260 258 281 274 273 259 246 183 162 195 221 236 245 253 240 252
333 318 290 281 301 312 227 283 291 308 245 339 326 319 297 274 264 268 279 293 310 285 256 248 247 243 251 263 249 244 245 248 266 274 281 269 263 252 217 180 160 182 207 232 241 250 233 250 264
12 334 334 321 320 286 300 302 326 346 338 12 334 323 309 275 256 272 277 294 333 343 255 217 213 220 224 240 233 252 258 257 264 263 261 233 221 179 162 166 184 204 228 237 236 232 247 265 275
16 341 309 315 327 323 295 318 306 293 1 349 334 333 306 260 255 252 274 259 86 66 59 121 214 219 228 236 245 254 261 260 232 178 158 150 144 167 183 193 204 223 226 228 232 246 265 275 283
91 285 280 271 296 315 310 329 311 312 342 345 336 334 318 268 236 236 237 211 121 72 63 68 69 72 105 174 145 148 132 123 117 117 120 135 221 229 215 220 228 224 221 227 244 259 269 287 297
275 252 224 286 292 284 297 352 294 303 256 346 337 7 16 241 220 209 219 175 105 65 64 49 69 81 86 87 89 79 71 71 83 98 80 289 271 268 259 223 228 229 234 244 255 269 282 290 293
266 261 226 282 280 295 259 283 282 296 320 350 324 3 32 32 40 43 55 84 57 45 39 28 36 40 42 38 43 47 37 36 4 346 295 281 277 276 266 240 238 243 257 264 275 282 291 293 293
263 267 184 232 264 291 275 268 275 286 284 326 311 314 323 39 33 8 342 6 20 15 13 10 13 16 18 2 13 16 12 360 327 285 277 261 262 268 281 254 256 259 262 271 280 289 294 298 296
261 294 249 237 246 232 264 277 269 298 260 322 322 314 316 325 278 224 279 313 332 349 348 353 359 357 342 339 350 349 342 329 313 304 291 282 276 268 274 281 287 270 269 288 280 302 296 303 298
239 242 257 256 246 220 246 267 288 281 263 305 327 269 311 288 270 263 271 319 333 316 328 327 322 319 325 329 326 320 316 315 313 305 293 279 280 284 287 290 293 295 292 294 291 291 289 293 294
246 247 262 250 233 240 211 275 292 261 205 238 279 264 296 264 266 265 278 318 329 320 298 298 307 312 311 316 308 305 301 299 301 300 298 297 280 279 285 290 296 298 296 287 295 285 289 279 273
235 233 236 238 232 282 213 255 264 283 258 201 240 290 299 286 252 268 283 305 303 294 291 301 309 310 304 297 298 295 295 298 290 286 297 297 270 313 304 297 297 299 301 296 297 290 284 278 269
227 232 234 242 259 204 244 247 237 264 275 265 272 277 275 286 283 271 275 271 290 288 288 291 291 298 298 292 284 288 299 304 302 290 313 308 307 305 300 297 300 301 297 300 301 295 305 282 298
228 233 232 231 255 256 232 181 249 257 266 262 276 276 268 274 288 279 274 280 282 280 274 271 276 280 273 271 275 287 278 286 286 292 292 296 301 302 298 302 303 302 303 304 302 297 297 291 291
226 207 237 220 239 247 239 237 254 246 258 258 258 274 287 277 267 270 279 282 278 272 274 273 268 265 263 263 264 276 288 286 285 287 284 293 303 303 305 304 306 304 300 298 295 296 293 291 291
232 231 224 225 237 246 228 233 252 180 248 255 267 278 276 277 270 262 264 270 272 277 274 264 266 266 264 264 264 270 277 278 280 285 296 298 301 302 304 304 303 301 302 303 295 293 298 300 300
241 235 231 237 236 236 235 226 253 248 248 265 272 271 273 268 275 268 261 261 271 274 272 268 265 269 273 266 271 271 274 268 279 287 290 296 297 300 302 301 301 302 300 298 295 292 296 299 299